Location: B?d?i
(46.3000°N, 22.8833°E)
Time: 09:45:43
(UTC+00:00)

Daily predictions for brighter satellites

Satellite Brightness Start Highest point End
(mag) Time Altitude Azimuth Time Altitude Azimuth Time Altitude Azimuth
CZ-4C R/B 3.5 15:04:21 10° NNW 15:10:33 35° NE 15:17:45 10° E
NOSS 3-1 (A) 4.1 15:03:22 10° NW 15:10:47 72° NE 15:19:30 10° SE
NOSS 3-1 (C) 4.4 15:03:28 10° NW 15:10:59 81° SW 15:19:46 10° SSE
Cosmos 1092 Rocket 4.4 15:07:06 10° N 15:13:06 41° ENE 15:19:01 10° SE
Cosmos 2221 2.5 15:10:04 10° S 15:14:20 85° E 15:18:39 10° N
Cosmos 1805 Rocket 4.4 15:10:51 10° NNE 15:14:40 29° ENE 15:18:27 10° SE
SL-16 R/B 3.9 15:16:20 10° N 15:18:51 13° NE 15:21:22 10° ENE
Cosmos 1842 Rocket 3.6 15:14:25 10° S 15:18:52 82° E 15:23:23 10° N
Meteor 1-25 Rocket 4.4 15:15:46 10° N 15:21:12 50° ENE 15:26:37 10° SSE
Cosmos 2084 3.5 15:17:23 10° NW 15:21:42 81° NE 15:26:11 10° SE
Cosmos 2082 Rocket 3.3 15:19:06 10° SSE 15:23:39 25° ESE 15:28:12 10° NE
USA 306 4.1 15:20:02 10° WNW 15:23:48 29° N 15:27:34 10° NE
Cosmos 1812 4.5 15:23:11 10° ESE 15:25:13 14° E 15:27:15 10° NE
CORIOLIS 4.4 15:21:54 10° SE 15:27:04 49° ENE 15:32:18 10° N
SMAP 3.2 15:22:36 10° SE 15:27:05 51° ENE 15:31:37 10° N
ISS -3.2 15:25:22 10° WNW 15:28:38 42° NNE 15:31:53 10° E
NOAA 12 4.1 15:25:24 10° SSE 15:30:44 85° ENE 15:36:06 10° NNW
Cosmos 1939 Rocket 3.0 15:26:49 10° SSE 15:30:51 58° ENE 15:34:52 10° N
Meteor PRIRODA 3.7 15:27:54 10° S 15:31:32 82° WSW 15:35:11 10° NNW
CZ-4B DEB 4.4 15:27:44 10° SE 15:33:01 49° ENE 15:38:17 10° N
Cosmos 2278 4.5 15:29:10 10° N 15:34:11 30° NE 15:39:09 10° ESE
Cosmos 2034 Rocket 4.0 15:30:55 10° S 15:37:05 88° E 15:43:17 10° N
Cosmos 540 Rocket 3.7 15:35:43 10° S 15:40:36 49° ESE 15:45:32 10° NNE
AQUARIUS 4.2 15:37:14 10° SSE 15:41:38 60° ENE 15:46:05 10° N
Cosmos 1602 3.8 15:38:11 10° N 15:41:59 53° ENE 15:45:46 10° SSE
USA 307 4.1 15:38:52 10° WNW 15:42:38 29° N 15:45:42 14° NE
ARGOS 4.0 15:39:19 10° ESE 15:43:49 28° ENE 15:48:18 10° N
COSMOS 2406 3.3 15:38:16 10° S 15:43:53 59° ESE 15:49:31 10° NNE
Cosmos 1833 Rocket 2.7 15:39:56 10° SSW 15:45:32 78° ESE 15:51:11 10° NNE
COSMO-SKYMED 1 3.7 15:46:11 12° NE 15:49:17 23° E 15:52:45 10° SSE
SL-08 R/B 4.3 15:46:26 10° N 15:50:59 48° WNW 15:55:25 10° SW
ATLAS CENTAUR R/B 3.1 15:40:32 10° SW 15:51:21 85° SE 15:54:59 16° NE
Cosmos 1782 3.0 15:49:38 10° SSE 15:53:29 49° E 15:57:21 10° NNE
Cosmos 1818 4.4 15:49:45 10° NNW 15:54:32 29° NE 15:58:07 15° E
Cosmos 468 Rocket 4.1 15:49:42 10° SSW 15:54:51 78° WNW 16:00:05 10° NNE
Cosmos 1634 Rocket 4.0 15:51:39 10° S 15:57:52 63° E 16:04:07 10° NNE
Cosmos 1633 Rocket 3.8 15:54:02 10° N 15:57:54 30° ENE 16:01:45 10° SE
ATLAS CENTAUR R/B 4.0 15:56:14 10° NW 15:58:03 12° NNW 15:59:56 10° N
Cosmos 1898 Rocket 3.8 15:53:31 10° NNW 15:58:46 73° WSW 16:03:56 10° SSE
COSMOS 2455 3.0 15:54:05 10° SSW 15:59:56 57° ESE 16:05:04 14° NE
YAOGAN 1 4.5 16:02:26 13° NNE 16:02:26 13° NNE 16:03:22 10° NNE
PAYLOAD B 4.2 15:57:02 10° SSE 16:02:35 66° ENE 16:08:09 10° N
Cosmos 2026 Rocket 3.9 15:57:27 10° N 16:03:37 78° E 16:09:41 10° SSE
Cosmos 1340 Rocket 4.4 16:00:34 10° NNW 16:04:21 38° W 16:08:09 10° SSW
CZ-2C R/B 3.1 15:59:45 10° NNE 16:04:33 37° E 16:09:18 10° SSE
CZ-2D R/B 3.2 16:01:09 10° SSE 16:04:56 64° ENE 16:08:44 10° N
CZ-2C R/B 4.3 16:00:34 10° SSW 16:05:11 41° W 16:09:42 10° NNW
USA 308 4.1 16:01:30 10° WNW 16:05:13 28° N 16:07:12 20° NE
CZ-4B R/B 3.3 16:00:17 10° SE 16:05:28 49° ENE 16:10:36 10° N
ERBS 4.5 16:05:19 10° NW 16:07:13 15° NNW 16:08:26 12° NNE
Meteor 2-14 Rocket 4.4 16:03:16 10° N 16:09:24 80° E 16:15:29 10° SSE
Cosmos 1151 Rocket 3.4 16:07:11 10° SSE 16:11:15 42° E 16:14:34 15° NNE
Cosmos 1500 3.0 16:08:05 10° N 16:11:50 77° E 16:15:33 10° SSE
Okean O Rocket 2.0 16:09:43 10° SE 16:13:53 41° ENE 16:18:05 10° N
NOSS 2-2 (C) 4.3 16:08:48 10° NW 16:14:00 80° NE 16:21:19 10° SE
Lacrosse 5 rocket 2.2 16:10:36 10° NW 16:14:04 29° NNE 16:14:59 26° NE
USA 267 3.5 16:13:43 17° NE 16:18:50 64° NNW 16:25:16 10° WSW
Meteor 1-11 Rocket 4.5 16:15:27 10° N 16:20:15 28° ENE 16:22:50 20° ESE
Cosmos 1655 Rocket 4.5 16:15:13 10° N 16:21:08 38° ENE 16:26:59 10° SE
Meteor 1-26 Rocket 4.4 16:15:52 10° S 16:21:51 90° W 16:27:56 10° N
H-2A R/B 1.9 16:17:37 10° SSE 16:22:49 87° ENE 16:27:53 10° NNW
Cosmos 1666 Rocket 3.5 16:19:22 10° N 16:23:48 66° E 16:28:10 10° SSE
Cosmos 2360 Rocket 3.8 16:22:24 10° N 16:25:22 17° NNE 16:25:22 17° NNE
Cosmos 1470 Rocket 4.1 16:22:50 10° N 16:26:57 35° ENE 16:31:04 10° SE
Cosmos 1328 Rocket 3.8 16:24:19 10° SSE 16:28:33 46° E 16:30:23 29° NE
USA 305 3.9 16:28:18 10° NW 16:32:05 30° N 16:32:46 29° NNE
Meteor 2-21 Rocket 4.4 16:26:19 10° N 16:32:28 89° E 16:38:32 10° S
Landsat 5 3.7 16:32:08 41° E 16:32:36 43° E 16:36:24 10° S
Meteor 2-8 Rocket 4.5 16:27:53 10° SSE 16:33:51 56° E 16:39:52 10° NNE
Cosmos 841 Rocket 3.6 16:29:17 10° SSW 16:34:26 75° WNW 16:38:47 15° NNE
SKYMED 2 3.4 16:34:48 22° NNE 16:37:34 72° E 16:41:54 10° S
Cosmos 1666 2.5 16:37:35 10° N 16:41:20 87° WSW 16:45:02 10° S
Cosmos 1125 Rocket 3.9 16:36:52 10° N 16:41:47 39° ENE 16:41:53 39° ENE
SL-24 R/B - RUBIN 2 4.1 16:40:25 10° NW 16:44:51 58° WSW 16:49:04 10° SSE
Cosmos 2322 Rocket 3.0 16:41:23 10° NNW 16:45:58 32° NE 16:45:58 32° NE
ATLAS 2AS CENTAUR R/B 4.3 16:42:03 10° NW 16:47:27 20° N 16:50:01 17° NNE
Cosmos 1697 Rocket 4.4 16:43:05 10° NW 16:48:03 33° WSW 16:53:00 10° SSW
Cosmos 1980 Rocket 2.7 16:47:04 10° NNW 16:52:38 59° WSW 16:58:08 10° S
USA 234 4.0 16:46:24 10° SSE 16:52:43 51° SW 16:59:03 10° WNW
SL-08 RB Rocket 3.6 16:51:49 10° SSE 16:56:27 76° ENE 17:01:04 10° N
CZ-4C R/B 3.0 16:52:36 10° NW 16:59:53 84° SW 17:08:23 10° SSE
Cosmos 1812 3.7 16:56:49 10° SSW 17:00:32 46° WNW 17:02:43 22° NNW
deb Chang Zheng 4 4.3 16:59:33 10° S 17:03:44 52° W 17:07:59 10° NNW
SL-16 R/B 2.3 16:58:46 10° NNW 17:04:16 53° NE 17:04:16 53° NE
USA 306 4.0 17:00:34 10° NW 17:03:42 32° N 17:03:42 32° N
ISS -2.6 17:02:13 10° WNW 17:04:58 44° WSW 17:04:58 44° WSW
Cosmos 2082 Rocket 2.8 17:01:47 10° SW 17:07:21 55° WNW 17:10:43 24° N
Cosmos 44 Rocket 3.1 17:09:34 10° NW 17:14:23 85° N 17:14:23 85° N
Cosmos 2333 Rocket 4.1 17:10:52 10° N 17:12:26 15° N 17:12:26 15° N
Cosmos 2278 4.5 17:13:05 10° NW 17:18:35 51° WSW 17:24:03 10° S
USA 307 4.5 17:19:18 10° NW 17:21:44 28° NNW 17:21:44 28° NNW
ARGOS 4.1 17:18:37 10° S 17:23:50 48° W 17:29:03 10° NNW
COSMO-SKYMED 1 3.9 17:23:24 23° NNW 17:25:33 37° WNW 17:29:32 10° SW
Cosmos 1900 4.4 17:20:57 10° SW 17:25:34 72° W 17:25:34 72° W
Cosmos 2298 Rocket 4.0 17:23:09 10° NNW 17:28:30 79° WSW 17:28:51 75° SSW
Cosmos 2266 Rocket 4.1 17:24:20 10° NNW 17:30:43 76° W 17:37:07 10° S
Cosmos 921 Rocket 4.4 17:30:22 10° SSW 17:32:43 32° SW 17:32:43 32° SW
ATLAS 5 CENTAUR R/B 3.4 17:29:31 10° NW 17:33:07 33° NW 17:33:07 33° NW
Meteor 2-15 Rocket 4.4 17:29:09 10° SSW 17:35:16 80° W 17:37:33 41° N
CZ-2C R/B 4.1 17:35:24 10° SSW 17:35:26 10° SSW 17:35:26 10° SSW
GEOS 3 Rocket 3.7 17:37:58 73° WNW 17:37:58 73° WNW 17:42:45 10° NW
Cosmos 1818 3.9 17:33:05 10° NW 17:38:31 63° WSW 17:38:50 61° SW
Cosmos 2219 Rocket 4.4 17:35:44 10° N 17:36:27 13° N 17:36:27 13° N
CZ-2C R/B 4.1 17:40:35 12° N 17:44:46 32° WNW 17:49:18 10° SW
COSMOS 2455 4.2 17:40:50 10° WSW 17:46:12 33° NW 17:48:14 26° N
Okean O Rocket 4.0 17:46:55 10° SW 17:50:24 22° W 17:53:53 10° NW
Lacrosse 5 rocket 3.8 17:49:26 10° NW 17:50:36 19° WNW 17:50:36 19° WNW
USA 267 4.1 18:01:04 37° N 18:01:13 37° N 18:07:05 10° WNW
Cosmos 2360 Rocket 4.1 18:05:21 10° NNW 18:07:10 21° NNW 18:07:10 21° NNW
Cosmos 2322 Rocket 4.0 18:25:16 10° NW 18:27:49 26° NW 18:27:49 26° NW
SL-16 R/B 4.3 18:43:29 10° NW 18:46:11 22° WNW 18:46:11 22° WNW
